TimeCST,TemperatureF,Dew PointF,Humidity,Sea Level PressureIn,VisibilityMPH,Wind Direction,Wind SpeedMPH,Gust SpeedMPH,PrecipitationIn,Events,Conditions,WindDirDegrees,DateUTC
12:15 AM,8.6,6.8,92,30.04,0.8,NW,12.7,-,N/A,Snow,Light Snow,320,2012-12-29 06:15:00
12:35 AM,8.6,6.8,92,30.03,0.8,NNW,15.0,-,N/A,Snow,Light Snow,330,2012-12-29 06:35:00
12:55 AM,10.4,6.8,85,30.03,1.2,NW,15.0,-,N/A,Snow,Light Snow,320,2012-12-29 06:55:00
1:15 AM,10.4,6.8,85,30.04,1.2,NW,12.7,-,N/A,Snow,Light Snow,320,2012-12-29 07:15:00
1:35 AM,10.4,6.8,85,30.04,1.2,NW,10.4,-,N/A,Snow,Light Snow,310,2012-12-29 07:35:00
1:55 AM,10.4,8.6,92,30.04,2.0,NW,12.7,-,N/A,Snow,Light Snow,310,2012-12-29 07:55:00
2:15 AM,12.2,8.6,85,30.05,3.0,NW,12.7,-,N/A,Snow,Light Snow,320,2012-12-29 08:15:00
2:35 AM,12.2,10.4,92,30.05,4.0,NW,12.7,-,N/A,Snow,Light Snow,320,2012-12-29 08:35:00
2:55 AM,12.2,10.4,92,30.06,5.0,NW,15.0,-,N/A,Snow,Light Snow,310,2012-12-29 08:55:00
3:15 AM,12.2,10.4,92,30.06,4.0,WNW,12.7,19.6,N/A,Snow,Light Snow,300,2012-12-29 09:15:00
3:35 AM,12.2,8.6,85,30.06,3.0,NW,12.7,-,N/A,Snow,Light Snow,320,2012-12-29 09:35:00
3:55 AM,10.4,8.6,92,30.06,4.0,WNW,16.1,-,N/A,Snow,Light Snow,300,2012-12-29 09:55:00
4:15 AM,10.4,8.6,92,30.06,6.0,WNW,16.1,-,N/A,,Overcast,300,2012-12-29 10:15:00
4:35 AM,10.4,8.6,92,30.06,7.0,WNW,15.0,-,N/A,Snow,Light Snow,300,2012-12-29 10:35:00
4:55 AM,10.4,8.6,92,30.06,10.0,West,12.7,-,N/A,Snow,Light Snow,280,2012-12-29 10:55:00
5:15 AM,10.4,6.8,85,30.06,9.0,WNW,16.1,-,N/A,Snow,Light Snow,290,2012-12-29 11:15:00
5:35 AM,10.4,6.8,85,30.07,8.0,WNW,13.8,-,N/A,Snow,Light Snow,290,2012-12-29 11:35:00
6:15 AM,10.4,8.6,92,30.08,6.0,West,10.4,-,N/A,Snow,Light Snow,280,2012-12-29 12:15:00
6:35 AM,10.4,6.8,85,30.09,5.0,WNW,13.8,-,N/A,Snow,Light Snow,290,2012-12-29 12:35:00
6:55 AM,8.6,6.8,92,30.09,7.0,WNW,10.4,17.3,N/A,Snow,Light Snow,300,2012-12-29 12:55:00
7:15 AM,8.6,6.8,92,30.09,6.0,WNW,12.7,-,N/A,Snow,Light Snow,290,2012-12-29 13:15:00
7:35 AM,8.6,5.0,85,30.09,5.0,West,10.4,-,N/A,Snow,Light Snow,280,2012-12-29 13:35:00
7:55 AM,10.4,6.8,85,30.10,3.0,West,11.5,-,N/A,Snow,Light Snow,270,2012-12-29 13:55:00
8:15 AM,10.4,6.8,85,30.09,3.0,West,12.7,-,N/A,Snow,Light Snow,270,2012-12-29 14:15:00
8:35 AM,8.6,6.8,92,30.09,2.0,West,13.8,-,N/A,Snow,Light Snow,270,2012-12-29 14:35:00
8:55 AM,8.6,5.0,85,30.10,-9999.0,West,16.1,-,N/A,Snow,Light Snow,270,2012-12-29 14:55:00
9:15 AM,8.6,5.0,85,30.10,0.8,West,17.3,-,N/A,Snow,Light Snow,270,2012-12-29 15:15:00
9:35 AM,8.6,5.0,85,30.12,0.8,West,16.1,-,N/A,Snow,Light Snow,280,2012-12-29 15:35:00
9:55 AM,8.6,6.8,92,30.13,1.2,West,16.1,-,N/A,Snow,Light Snow,280,2012-12-29 15:55:00
10:15 AM,8.6,6.8,92,30.13,2.0,West,12.7,-,N/A,Snow,Light Snow,270,2012-12-29 16:15:00
10:35 AM,8.6,6.8,92,30.13,2.0,West,12.7,-,N/A,Snow,Light Snow,260,2012-12-29 16:35:00
10:55 AM,10.4,6.8,85,30.13,2.5,West,11.5,-,N/A,Snow,Light Snow,260,2012-12-29 16:55:00
11:15 AM,10.4,6.8,85,30.11,3.0,WSW,8.1,-,N/A,Snow,Light Snow,250,2012-12-29 17:15:00
11:35 AM,10.4,6.8,85,30.11,4.0,WSW,12.7,-,N/A,,Mostly Cloudy,250,2012-12-29 17:35:00
11:55 AM,10.4,6.8,85,30.10,3.0,WSW,12.7,-,N/A,,Mostly Cloudy,250,2012-12-29 17:55:00
12:15 PM,10.4,6.8,85,30.10,3.0,WSW,10.4,-,N/A,,Overcast,240,2012-12-29 18:15:00
12:55 PM,10.4,6.8,85,30.09,5.0,WSW,10.4,-,N/A,,Overcast,240,2012-12-29 18:55:00
1:15 PM,10.4,6.8,85,30.08,7.0,WSW,12.7,-,N/A,,Overcast,240,2012-12-29 19:15:00
1:35 PM,10.4,6.8,85,30.08,8.0,WSW,15.0,-,N/A,,Mostly Cloudy,250,2012-12-29 19:35:00
1:55 PM,10.4,6.8,85,30.09,8.0,West,13.8,-,N/A,,Scattered Clouds,260,2012-12-29 19:55:00
2:15 PM,10.4,6.8,85,30.08,8.0,West,13.8,-,N/A,,Mostly Cloudy,260,2012-12-29 20:15:00
2:35 PM,10.4,6.8,85,30.09,8.0,West,12.7,-,N/A,,Partly Cloudy,260,2012-12-29 20:35:00
2:55 PM,10.4,6.8,85,30.09,8.0,West,12.7,-,N/A,,Mostly Cloudy,260,2012-12-29 20:55:00
3:15 PM,10.4,8.6,92,30.10,6.0,West,12.7,-,N/A,,Overcast,270,2012-12-29 21:15:00
3:35 PM,12.2,10.4,92,30.10,0.8,West,13.8,-,N/A,,Overcast,270,2012-12-29 21:35:00
3:55 PM,12.2,8.6,85,30.10,4.0,WSW,13.8,-,N/A,,Overcast,250,2012-12-29 21:55:00
4:15 PM,12.2,10.4,92,30.11,0.8,WSW,13.8,-,N/A,,Overcast,250,2012-12-29 22:15:00
4:35 PM,12.2,8.6,85,30.12,0.5,WSW,13.8,-,N/A,Fog,Light Freezing Fog,250,2012-12-29 22:35:00
5:15 PM,10.4,6.8,85,30.12,3.0,West,13.8,-,N/A,,Overcast,260,2012-12-29 23:15:00
5:35 PM,8.6,6.8,92,30.12,2.5,West,11.5,-,N/A,,Overcast,260,2012-12-29 23:35:00
5:55 PM,6.8,3.2,85,30.12,5.0,West,9.2,-,N/A,,Scattered Clouds,260,2012-12-29 23:55:00
6:15 PM,8.6,5.0,85,30.12,7.0,WSW,12.7,-,N/A,,Clear,250,2012-12-30 00:15:00
6:35 PM,6.8,3.2,85,30.13,6.0,WSW,12.7,-,N/A,,Clear,250,2012-12-30 00:35:00
6:55 PM,6.8,3.2,85,30.13,5.0,WSW,11.5,-,N/A,,Clear,250,2012-12-30 00:55:00
7:15 PM,6.8,3.2,85,30.13,7.0,West,10.4,-,N/A,,Clear,260,2012-12-30 01:15:00
7:35 PM,6.8,3.2,85,30.13,8.0,West,11.5,-,N/A,,Clear,260,2012-12-30 01:35:00
7:55 PM,6.8,5.0,92,30.14,10.0,West,13.8,-,N/A,,Clear,260,2012-12-30 01:55:00
8:15 PM,6.8,3.2,85,30.14,9.0,West,12.7,-,N/A,,Clear,260,2012-12-30 02:15:00
8:35 PM,8.6,5.0,85,30.14,10.0,WSW,11.5,-,N/A,,Clear,250,2012-12-30 02:35:00
8:55 PM,6.8,3.2,85,30.14,10.0,West,12.7,-,N/A,,Clear,260,2012-12-30 02:55:00
9:15 PM,6.8,3.2,85,30.15,10.0,West,10.4,-,N/A,,Clear,260,2012-12-30 03:15:00
9:35 PM,6.8,5.0,92,30.14,10.0,WSW,9.2,-,N/A,,Clear,250,2012-12-30 03:35:00
9:55 PM,6.8,3.2,85,30.15,10.0,WSW,9.2,-,N/A,,Clear,250,2012-12-30 03:55:00
10:15 PM,6.8,3.2,85,30.15,10.0,WSW,9.2,-,N/A,,Clear,250,2012-12-30 04:15:00
10:35 PM,6.8,3.2,85,30.15,10.0,WSW,8.1,-,N/A,,Clear,250,2012-12-30 04:35:00
10:55 PM,6.8,3.2,85,30.15,10.0,WSW,8.1,-,N/A,,Clear,240,2012-12-30 04:55:00
11:15 PM,8.6,5.0,85,30.16,10.0,WSW,8.1,-,N/A,,Clear,240,2012-12-30 05:15:00
11:35 PM,8.6,5.0,85,30.15,10.0,WSW,6.9,-,N/A,,Clear,250,2012-12-30 05:35:00
11:55 PM,8.6,5.0,85,30.15,9.0,WSW,5.8,-,N/A,,Clear,250,2012-12-30 05:55:00